User: anonymous   Login
Location: Columbia
(38.9520°N, 92.3340°W)
Time: 06:12:14
(UTC-06:00)
Language:

CZ-2C R/B - Orbit

View from above orbital plane
View from above orbital plane
View from above satellite
View from above satellite

Ground track
Ground track

The orbit data is extracted from the following two-line orbital elements,

1 28480U 04046B   14352.86685766  .00000204  00000-0  92732-4 0  5127
2 28480 098.1129 134.8922 0142860 036.2026 116.1219 14.25407841524393
Epoch (UTC): 18 December 2014 20:48:16
Eccentricity: 0.0142860
inclination: 98.1129°
perigee height: 704 km
apogee height: 910 km
right ascension of ascending node: 134.8922°
argument of perigee: 36.2026°
revolutions per day: 14.25407841
mean anomaly at epoch: 116.1219°
orbit number at epoch: 52439

The dashed part of the orbit path shows where the satellite is in the earth's shadow,  

DLR